Regional Weather Roundup
Issued by NWS

Home | Current Version | Previous Version | Text Only | Print | Product List | Glossary On
Versions: 1 2 3 4 5 6 7 8 9 10 11 12 13 14 15 16 17 18 19 20 21 22 23 24 25 26 27
000
ASUS45 KPSR 011310
RWRAZ

ARIZONA HOURLY REGIONAL WEATHER ROUNDUP
NATIONAL WEATHER SERVICE PHOENIX AZ
600 AM MST SAT OCT 01 2016

NOTE: FAIR INDICATES FEW OR NO CLOUDS BELOW 12,000 FEET WITH NO
SIGNIFICANT WEATHER AND/OR OBSTRUCTIONS TO VISIBILITY.

AZZ001>003-036-011400-
NORTHWEST ARIZONA

CITY           SKY/WX    TMP DP  RH WIND       PRES   REMARKS
BULLHEAD CITY  CLEAR     75  50  41 SE5       29.92R
KINGMAN        CLEAR     63  32  31 CALM      30.08R
$$

AZZ004>008-015-016-018-011400-
NORTH CENTRAL ARIZONA

CITY           SKY/WX    TMP DP  RH WIND       PRES   REMARKS
GRAND CANYON   PTCLDY    42  40  92 E3        30.28S
PRESCOTT       CLEAR     51  49  92 SW3       30.20S
FLAGSTAFF      MOCLDY    42  41  96 CALM      30.31R
PAYSON         PTCLDY    54  45  71 CALM      30.25R
PAGE           CLEAR     59  52  77 CALM      30.15R
$$

AZZ009>014-017-011400-
NORTHEAST ARIZONA

CITY           SKY/WX    TMP DP  RH WIND       PRES   REMARKS
WINSLOW        CLEAR     48  46  93 CALM      30.22R
SAINT JOHNS    CLEAR     45  44  97 CALM      30.25R
WINDOW ROCK    CLEAR     42  39  89 CALM      30.30S
SHOW LOW       CLEAR     46  43  87 S6        30.29S
$$

AZZ023-011400-
GREATER PHOENIX AREA

CITY           SKY/WX    TMP DP  RH WIND       PRES   REMARKS
PHOENIX        PTCLDY    75  58  55 S3        29.97R
BUCKEYE        CLOUDY    72  52  49 N6        29.98S
LUKE AFB       CLEAR     72  55  53 N3        29.97R
DEER VALLEY    CLEAR     74  49  41 NE9       29.99R
SCOTTSDALE     CLEAR     72  56  57 CALM      30.00R
MESA-GATEWAY   PTCLDY    68  57  68 E6        30.00R
CHANDLER       PTCLDY    72  57  60 CALM      29.96
$$

AZZ027-028-011400-
SOUTHWEST MARICOPA COUNTY AND PINAL COUNTY

CITY           SKY/WX    TMP DP  RH WIND       PRES   REMARKS
CASA GRANDE    CLEAR     70  54  56 E3        30.01S
GILA BEND      FAIR      73  52  46 S7        29.95R
$$

AZZ503-504-507>509-011400-
SOUTHEAST ARIZONA

CITY           SKY/WX    TMP DP  RH WIND       PRES   REMARKS
TUCSON         CLEAR     65  57  75 SE8       30.10R
DAVIS-MONTHAN  CLEAR     65  56  72 SE7       30.09R
RYAN FIELD     CLEAR     64  57  77 SE5       30.08
NOGALES        CLEAR     55  52  89 CALM      30.16R
SIERRA VISTA   CLEAR     60  52  74 SW6       30.21R
DOUGLAS        PTCLDY    53  51  93 CALM      30.18R
SAFFORD        CLEAR     59  55  87 S3        30.11R
$$

AZZ020-021-025-026-031-011400-
SOUTHWEST ARIZONA

CITY           SKY/WX    TMP DP  RH WIND       PRES   REMARKS
YUMA           CLEAR     77  58  51 SE6       29.90R
$$

CAZ031-033-041-043-047-048-061-011400-
SOUTHERN CALIFORNIA

CITY           SKY/WX    TMP DP  RH WIND       PRES   REMARKS
DOWNTOWN L.A.  CLEAR     65  61  87 CALM      29.96S
L.A. AIRPORT   CLEAR     66  60  81 CALM      29.97S
SAN DIEGO      PTCLDY    68  63  84 CALM      29.99R
BURBANK        CLEAR     67  52  58 SE5       29.98S
ONTARIO        PTCLDY    66  48  52 CALM      29.99R
RIVERSIDE      CLEAR     65  52  62 NE3       29.98S
PALM SPRINGS   CLEAR     74  55  51 S3        29.92R
EL CENTRO NAS  PTCLDY    77  60  55 S9        29.90R
IMPERIAL       CLEAR     78  60  53 S5        29.88R
BLYTHE         CLEAR     78  60  53 CALM      29.90R
NEEDLES          N/A     78  52  40 W7        29.92R
$$

NVZ020-UTZ003-011400-
SOUTHERN NEVADA-UTAH

CITY           SKY/WX    TMP DP  RH WIND       PRES   REMARKS
LAS VEGAS      PTCLDY    76  42  29 S8        29.97R
SALT LAKE CITY PTCLDY    61  49  64 SE12      30.05S
$$

NMZ009-TXZ055-011400-
NEW MEXICO-WEST TEXAS

CITY           SKY/WX    TMP DP  RH WIND       PRES   REMARKS
ALBUQUERQUE    MOCLDY    57  55  93 S5        30.22R
EL PASO        PTCLDY    63  58  83 S5        30.14R
$$


........................KEY........................
SKY/WX - SKY CONDITION/WEATHER
TMP    - TEMPERATURE IN FAHRENHEIT
DP     - DEW POINT IN FAHRENHEIT
RH     - RELATIVE HUMIDITY IN PERCENT
WIND   - DIRECTION AND SPEED IN MILES PER HOUR (MPH)
VRB    - VARIABLE WIND DIRECTION
PRES   - MEAN SEA LEVEL PRESSURE IN INCHES OF MERCURY
         F - FALLING PRESSURE   R - RISING PRESSURE
         S - STEADY PRESSURE
VSB    - VISIBILITY IN MILES
HX     - HEAT INDEX IN FAHRENHEIT
WCI    - WIND CHILL INDEX IN FAHRENHEIT
TC     - TEMPERATURE IN CELSIUS WHICH IS ALSO KNOWN AS
         TEMPERATURE IN CENTIGRADE
AFB    - AIR FORCE BASE
         LUKE AFB IS LUKE AIR FORCE BASE
         DAVIS-MONTHAN IS DAVIS-MONTHAN AIR FORCE BASE
NAS    - NAVAL AIR STATION
         EL CENTRO NAS IS EL CENTRO NAVAL AIR STATION
N/A    - NOT AVAILABLE





USA.gov is the U.S. government's official web portal to all federal, state and local government web resources and services.